Reflectivity
-20 -20 -20 -20 -20 -20 -20 -20 -20 -20 -20 -20 -20 -20 -20 -20 -20 -20 -20 -20 -15 -20 -20 -20 -20 -20 -20 -20 -20 -20 -20 -20 -20 -20 -20 -20 -20 -20 -20 -20 -20 -20 -20 -20 -20 -20 -20 -20 -20
-20 -20 -20 -20 -20 -20 -20 -20 -20 -20 -20 -20 -20 -20 -20 -20 -20 -20 -20 -5 -20 -20 -20 -10 -12 -20 -20 -20 -20 -20 -20 -20 -20 -20 -20 -20 -20 -20 -20 -20 -20 -20 -20 -20 -20 -20 -20 -20 -20
-20 -20 -20 -20 -20 -20 -20 -20 -20 -20 -20 -20 -20 -20 -20 -20 -20 -20 15 -12 8 6 5 8 11 2 -20 -20 -20 -20 -20 -20 -20 -20 -20 -20 -20 -20 -20 -20 -20 -20 -20 -20 -20 -20 -20 -20 -20
-20 -20 -20 -20 -20 -20 -20 -20 -20 -20 -20 -20 -20 -20 -20 -20 -20 -20 -20 -18 -20 -5 12 -20 11 13 7 -20 -20 -20 -20 -20 -20 -20 -20 -20 -20 -20 -20 -20 -20 -20 -20 -20 -20 -20 -20 -20 -20
-20 -20 -20 -20 -20 -20 -20 -20 -20 -20 -20 -20 -20 -20 -20 -20 -20 -20 -20 -20 -20 -20 -20 -20 2 12 5 10 2 -20 -20 -20 -20 -20 -20 -20 -20 -20 -20 -20 -20 -20 -20 -18 -20 -20 -20 -20 -20
-20 -20 -20 -20 -20 -20 -20 -20 -20 -20 -20 -20 -20 -20 -20 -20 -20 -20 -20 -20 -20 -20 -20 -20 8 -8 12 -4 8 -2 -20 -20 -20 -20 -20 -20 -20 -20 -20 -20 -20 -20 -20 -1 -20 -20 -20 -20 -20
-20 -20 -20 -20 -20 -20 -20 -20 -20 -20 -20 -20 -20 -20 -20 -20 -20 -20 -20 -20 -20 -20 -20 -20 -20 4 2 8 -4 -18 -20 -20 -20 -20 -20 -20 -20 -20 -20 -20 -20 -20 -20 -17 -20 -20 -20 -20 -20
-20 -20 -20 -20 -20 -20 -20 -20 -20 -20 -20 -20 -20 -20 -20 -20 -20 -20 -20 -20 -20 -20 -20 -20 -15 -18 7 3 19 8 -19 3 -20 -20 -20 -20 -20 -20 -20 -20 -20 -20 -20 -20 -20 -20 -20 -20 -20
-20 -20 -20 -20 -20 -20 -20 -20 -20 -20 -20 -20 -20 -20 -20 -20 -20 -20 -20 -20 -20 -20 -20 -20 -20 -20 5 -17 -0 27 -3 -12 -20 -16 -12 -9 -20 -20 -20 -20 -20 -20 -20 -20 -20 -20 -20 -20 -20
-20 -20 -20 -20 -20 -20 -20 -20 -20 -20 -20 -20 -20 -20 -20 -20 -20 -20 -20 -20 -20 -20 -20 -20 -20 -20 -20 1 5 -6 12 23 -3 7 6 -4 -8 -10 -20 -20 -20 -20 -20 -20 -20 -20 -20 -20 -20
-20 -20 -20 -20 -20 -20 -20 -20 -20 -20 -20 -20 -20 -20 -20 -20 -20 -20 -20 -20 -20 -20 -20 -20 -20 -20 -20 -20 0 -7 28 35 18 21 27 2 4 6 3 -14 -4 -20 -20 -20 -20 -20 -20 -14 -20
-20 -20 -20 -20 -20 -20 -20 -20 -20 -20 -20 -20 -20 -20 -20 -20 -20 -20 -20 -20 -20 -20 -20 -20 -20 -20 -20 -20 -9 2 20 34 18 5 19 11 7 3 3 3 2 2 -6 -15 -18 -18 -17 3 -20
-20 -20 -20 -20 -20 -20 -20 -20 -20 -20 -20 -20 -20 -20 -20 -20 -20 -20 -20 -20 -20 -20 -20 -20 -20 -8 -6 -20 -20 -20 -10 -0 28 16 28 19 8 0 13 8 -19 -10 -9 -20 2 1 0 -20 -20
-20 -20 -20 -20 -20 -20 -20 -20 -20 -20 -20 -20 -20 -20 -20 -20 -20 -20 -20 -20 -20 -20 -20 -20 -20 -20 -18 -8 -3 -20 -7 26 7 30 34 37 9 6 9 40 7 -20 -16 -20 -16 -13 -20 -20 -20
-20 -20 -20 -20 -20 -20 -20 -20 -20 -20 -20 -20 -20 -20 -20 -20 -20 -20 -20 -20 -20 -20 -20 -20 -20 -20 -20 -20 -20 -20 -19 -20 22 -0 29 37 31 14 -2 -2 22 -11 -20 -7 -1 -0 -7 -13 -20
-20 -20 -20 -20 -20 -20 -20 -20 -20 -20 -20 -20 -20 -20 -20 -20 -20 -20 -20 -20 -20 -20 -20 -20 -20 -20 -20 -20 -20 -20 -20 -20 -16 -7 16 46 28 28 1 3 3 43 10 -20 -20 -1 3 -4 -20
-20 -20 -20 -20 -20 -20 -20 -20 -20 -20 -20 -20 -20 -20 -20 -20 -20 -20 -20 -20 -20 -20 -20 -20 -20 -20 -20 -20 -20 -20 -20 -20 -20 -15 21 9 -3 44 24 14 13 20 17 33 17 -5 -20 -11 -17
-20 -20 -20 -20 -20 -20 -20 -20 -20 -20 -20 -20 -20 -20 -20 -20 -20 -20 -20 -20 -20 -20 -20 -20 -20 -20 -20 -20 -20 -20 -20 -20 -20 -20 -20 27 14 22 41 18 -6 14 13 27 27 24 -8 -20 -9
-20 -20 -20 -20 -20 -20 -20 -20 -20 -20 -20 -20 -20 -20 -20 -20 -20 -20 -20 -20 -20 -20 -20 -20 -20 -20 -20 -20 -20 -20 -20 -20 -20 -20 -20 -20 29 26 -4 44 10 10 7 -20 9 29 5 -11 9
-20 -20 -20 -20 -20 -20 -20 -20 -20 -20 -20 -20 -20 -20 -20 -20 -20 -20 -20 -20 -20 -20 -20 -20 -20 -20 -20 -20 -18 -11 -18 -20 -20 -20 -20 -20 -20 19 19 16 42 5 -4 -5 15 21 22 -3 6
-20 -20 -20 -20 -20 -20 -20 -20 -20 -20 -20 -20 -20 -20 -20 -20 -20 -20 -20 -20 -20 -20 -20 -20 -20 -20 -20 -20 -13 4 -6 -20 -20 -20 -20 -14 -20 -10 -3 14 29 42 20 -2 26 21 26 23 4
-20 -20 -20 -20 -20 -15 -20 11 -20 -20 -20 -20 -20 -20 -20 -20 -20 -20 -20 -20 -20 -20 -20 -20 -20 -20 -20 -20 -20 -14 10 12 -18 -12 -5 -6 -13 -18 -20 13 3 36 33 23 30 23 5 27 -3
-20 -20 -20 -20 -20 -20 -20 -20 -20 -20 -20 -20 -20 -20 -20 -20 -20 -20 -20 -20 -20 -20 -20 -20 -20 -20 -20 -20 -20 -20 -6 14 12 -15 -4 -5 -7 -20 -5 -20 3 24 46 44 43 35 16 3 23
-20 -20 -20 -20 -20 -20 -20 -20 -20 -20 -20 -20 -20 -20 -20 -20 -20 -20 -20 -20 -20 -20 -20 -20 -20 -20 -20 -20 -20 -4 -20 0 10 13 -4 1 1 -3 -8 1 -19 3 22 31 43 35 41 21 13
-20 -20 -20 -20 -20 -20 -20 -20 -20 -20 -20 -20 -20 -20 -20 -20 -20 -20 -20 -20 -20 -20 -20 -20 -20 -20 -20 -20 -20 -13 -1 -20 -1 1 8 -3 -17 -5 -1 1 -2 -3 -2 18 28 36 37 36 42
-20 -20 -20 -20 -20 -20 -20 -20 -20 -20 -20 -20 -20 -20 -20 -20 -20 -20 -20 -20 -20 -20 -20 -20 -20 -20 -20 -20 -3 1 -17 7 -20 -1 10 13 5 -1 -0 2 -7 2 10 19 23 24 37 43 19
-20 -20 -20 -20 -20 -20 -20 -20 -20 -20 -20 -20 -20 -20 -20 -20 -20 -20 -20 -20 -20 -20 -20 -20 -20 -20 -20 -20 -5 6 4 1 -17 -11 3 9 10 -13 2 4 7 19 12 15 12 26 27 31 36
-20 -20 -20 -20 -20 -20 -20 -20 -20 -20 -20 -20 -20 -20 -20 -20 -20 -20 -20 -20 -20 -20 -20 -20 -20 -20 -20 -20 -13 10 6 2 -12 -13 0 8 8 -17 -0 8 7 -12 0 15 3 10 19 25 25
-20 -20 -20 -20 -20 -20 -20 -20 -20 -20 -20 -20 -20 -20 -20 -20 -20 -20 -20 -20 -20 -20 -20 -20 -20 -20 -20 -20 -5 -8 5 3 -20 -11 -7 3 6 -13 1 11 -6 4 -7 9 20 15 9 16 27
-20 -20 -20 -20 -20 -20 -20 -20 -20 -20 -20 -20 -20 -20 -20 -20 -20 -20 -20 -20 -20 -20 -20 -20 -20 -20 -20 -20 -20 1 6 -14 -0 3 1 4 6 4 0 7 9 0 -6 9 13 12 18 10 22
Wind_Speed
12 10 2 2 1 2 4 7 3 11 5 11 8 4 8 23 10 5 23 28 17 8 6 14 15 13 12 12 12 12 15 16 16 16 17 18 18 16 16 14 14 14 16 18 17 16 17 18 18
9 6 3 2 3 3 4 4 12 8 6 13 6 9 12 9 24 9 20 41 16 9 5 6 7 7 11 12 12 13 15 17 17 17 17 18 18 18 14 14 11 12 15 17 17 18 19 18 18
5 5 3 4 3 4 4 6 7 11 9 13 7 12 9 16 18 16 24 31 18 13 12 12 12 12 10 2 8 10 13 15 17 17 17 17 18 18 15 13 12 11 14 17 17 18 18 17 17
5 3 4 4 8 6 6 7 10 10 9 15 10 13 13 22 14 20 26 26 25 26 19 12 13 12 12 10 7 3 9 10 14 17 18 18 18 17 16 11 11 13 13 16 17 17 17 17 16
4 2 4 4 4 6 10 10 12 13 6 15 12 7 9 13 23 24 23 24 25 23 20 23 22 10 10 10 10 6 3 9 12 14 17 18 18 16 16 11 12 12 13 15 16 17 17 17 16
3 1 2 1 5 5 9 11 13 13 13 12 13 11 6 19 32 30 23 22 22 23 21 21 27 28 20 7 8 8 6 5 8 11 14 17 17 16 15 13 11 11 12 13 15 16 17 17 17
3 2 2 1 3 5 11 15 14 11 15 11 13 4 9 32 30 26 21 19 21 23 21 20 20 24 26 26 4 4 7 6 6 8 10 12 13 15 15 14 12 12 12 13 14 16 16 17 17
3 2 3 5 4 4 10 8 5 14 13 1 14 12 11 27 28 23 17 17 19 21 21 21 19 19 19 17 16 5 4 6 8 7 8 8 11 13 15 15 11 13 13 14 14 15 15 15 16
1 3 3 3 3 3 12 6 8 9 8 16 12 14 17 22 23 22 25 25 21 19 21 20 21 18 18 16 16 16 7 5 9 9 8 8 11 13 15 14 14 13 13 14 13 14 13 12 12
4 3 3 4 3 8 21 19 7 9 16 13 19 19 20 21 22 26 26 24 28 27 24 21 21 21 18 13 16 14 7 8 9 10 12 11 10 11 12 11 13 13 13 13 13 13 10 13 11
6 5 3 9 8 11 8 22 17 6 13 15 19 23 22 23 23 24 23 23 23 24 20 24 21 20 20 14 12 8 8 6 7 11 11 9 7 8 9 8 9 10 11 10 12 12 12 14 10
7 10 6 8 7 7 8 9 20 21 9 11 13 16 18 23 23 23 24 24 24 24 24 24 23 20 19 13 9 10 8 9 9 9 12 10 6 8 9 8 10 9 9 12 12 10 13 13 13
9 10 14 17 22 21 18 20 14 19 14 12 12 16 19 19 20 19 20 21 22 23 24 23 22 20 18 16 12 10 10 8 11 12 12 10 10 9 8 9 8 8 10 11 11 12 12 13 13
3 14 13 12 18 12 19 14 5 16 13 14 16 17 18 20 21 20 21 22 23 22 23 23 23 20 21 18 18 12 10 11 10 10 13 16 10 8 9 10 10 8 9 10 11 12 12 12 12
6 8 10 14 4 5 6 20 15 12 11 14 16 16 17 19 20 20 21 20 21 19 20 21 21 22 22 21 17 13 12 12 11 9 14 19 13 12 11 10 9 7 9 12 10 11 12 12 12
4 3 3 10 12 8 1 6 10 12 12 16 16 16 16 18 19 18 19 19 20 21 21 21 19 21 22 20 16 14 13 12 11 10 10 19 14 16 13 11 10 10 9 10 9 11 12 13 13
6 3 3 4 15 2 6 6 8 9 12 14 15 16 16 17 20 19 20 19 19 19 20 22 20 21 22 20 15 16 17 13 11 11 9 15 19 17 16 11 11 15 11 9 9 10 13 13 13
3 2 3 5 6 17 17 11 5 8 11 13 14 15 16 17 19 18 19 19 19 18 18 19 16 20 19 14 14 13 12 13 13 12 10 13 13 17 15 13 14 13 11 10 10 12 13 13 13
3 4 7 4 7 9 10 10 7 8 13 15 16 16 17 17 16 17 17 17 19 19 19 20 20 16 13 13 15 13 13 14 12 12 17 17 13 16 16 13 16 16 15 15 14 12 15 13 13
7 6 8 7 6 5 6 9 6 9 12 12 13 14 15 17 18 19 19 18 19 18 18 18 18 19 13 11 11 13 13 13 12 11 15 16 16 15 15 15 12 18 16 16 16 16 12 12 13
4 9 7 2 5 5 6 6 4 4 9 11 13 12 13 15 16 17 19 18 17 18 18 17 17 17 15 15 11 10 13 12 9 13 13 14 18 16 14 17 12 12 14 14 16 18 21 14 13
3 11 6 5 9 3 1 2 3 6 9 13 13 13 14 15 14 14 16 17 16 16 15 16 17 17 16 17 12 17 11 14 13 13 13 14 16 17 17 16 15 13 10 13 15 16 18 16 14
4 9 5 8 7 6 5 0 4 4 9 14 13 13 13 12 11 12 14 15 15 15 15 14 16 16 17 17 16 12 14 11 11 13 18 17 13 17 18 15 18 10 7 10 7 7 17 15 15
8 2 5 5 3 3 3 3 2 4 5 9 10 12 12 12 12 12 11 12 14 15 15 15 17 17 17 17 18 17 16 17 14 14 14 12 10 11 16 15 14 15 10 10 10 13 12 16 16
10 3 2 3 4 2 3 3 2 4 6 7 10 11 11 10 10 11 11 12 14 15 16 15 17 19 19 18 18 18 18 16 16 14 13 17 11 10 13 16 13 12 13 11 12 14 12 6 11
7 5 3 3 3 4 4 2 1 5 9 7 7 8 9 10 10 11 11 10 12 14 14 16 18 18 19 18 18 17 19 12 11 13 12 11 10 11 15 14 14 14 14 15 12 12 14 15 10
3 7 1 3 3 2 3 2 6 6 5 7 10 12 11 12 12 12 12 10 11 13 15 15 17 18 18 19 16 16 16 18 16 15 15 11 12 12 14 16 13 12 12 13 15 12 15 15 16
9 3 2 3 4 4 2 3 3 6 8 11 12 11 12 12 13 12 10 10 9 11 12 15 16 17 18 18 16 12 16 17 14 14 15 17 14 14 14 17 15 14 13 13 14 15 17 18 15
3 3 6 4 2 3 4 2 5 6 7 9 12 10 9 11 11 11 11 10 9 11 13 15 16 18 18 17 16 14 16 17 15 14 14 15 16 15 14 15 18 17 16 15 13 15 17 19 19
3 4 3 2 1 2 3 5 2 7 8 9 10 9 9 9 11 11 11 10 10 11 13 14 15 16 17 16 16 13 16 16 15 16 18 16 16 16 15 15 15 18 17 16 15 15 15 20 23
Wind_Direction
326 327 319 53 148 65 81 67 339 9 6 343 305 316 34 61 351 27 333 355 334 327 256 166 157 157 151 151 147 144 144 144 146 145 145 143 143 145 148 148 148 142 136 131 132 131 132 132 128
324 331 49 68 73 79 87 50 25 357 318 331 357 359 63 46 14 17 358 330 353 359 334 316 341 154 154 152 149 149 147 147 147 146 146 149 147 145 154 148 150 145 137 134 135 137 134 131 129
336 9 33 61 67 73 92 15 12 346 348 19 20 38 46 337 2 356 336 339 1 27 21 12 21 3 344 100 149 153 150 150 146 146 149 152 150 149 156 152 151 149 144 140 139 141 134 132 130
357 28 80 64 79 53 65 22 9 10 354 24 353 81 103 51 357 340 340 357 6 8 18 36 13 2 358 340 328 147 149 148 150 151 153 156 154 156 151 158 152 152 153 146 141 141 137 133 131
31 45 44 79 78 100 43 31 26 22 27 21 345 354 99 23 2 354 353 4 10 8 10 8 4 5 351 341 330 317 195 159 160 159 159 158 160 159 150 161 156 156 161 151 143 143 140 137 134
58 28 58 49 94 57 26 17 23 30 9 12 12 331 89 12 -0 354 355 6 11 11 7 9 1 3 353 344 323 311 272 224 172 166 166 164 162 159 158 156 159 157 158 148 145 146 145 142 139
79 79 140 348 99 73 9 342 27 64 30 14 327 358 325 355 352 349 352 5 9 12 11 6 1 357 353 346 283 305 295 272 226 181 174 172 162 161 160 156 163 154 147 146 151 150 151 148 143
87 84 86 29 24 86 356 342 42 38 41 32 15 15 344 339 343 346 357 10 13 12 11 4 0 358 353 341 309 258 240 273 258 216 189 180 170 169 161 154 164 153 152 151 157 153 156 151 148
88 79 80 52 23 61 2 23 25 59 68 59 45 26 343 340 347 357 2 4 10 12 10 3 358 359 355 346 339 323 225 217 263 232 202 172 193 188 174 179 157 159 157 153 157 155 158 148 151
45 74 79 60 2 99 60 49 5 43 39 10 0 5 0 359 5 8 9 4 0 1 3 3 359 354 357 346 340 335 292 236 228 230 212 198 199 202 194 180 159 160 159 155 155 157 152 161 167
33 59 316 35 3 142 100 60 40 32 39 7 350 350 358 6 11 12 9 5 359 354 358 1 357 356 355 352 343 337 322 294 220 227 236 204 186 199 205 183 175 178 170 172 169 168 179 180 180
105 55 56 12 44 73 74 94 64 50 40 2 358 359 4 11 12 11 5 1 358 358 357 355 355 354 354 348 347 331 324 323 315 230 221 212 190 190 198 200 182 183 186 177 183 183 188 185 188
83 96 78 91 84 90 85 67 69 39 24 19 17 19 17 15 16 14 8 3 359 358 355 356 351 351 349 347 345 334 329 328 325 316 223 204 205 195 191 206 188 186 182 185 184 187 187 189 186
72 104 121 82 79 78 79 52 56 18 15 26 25 21 19 14 9 6 10 7 3 356 355 353 352 352 349 348 346 338 330 325 319 310 308 195 188 195 185 200 202 182 185 192 189 190 190 191 188
103 82 104 32 5 144 288 39 33 15 23 31 26 20 15 14 10 9 2 3 2 359 353 357 352 351 350 345 342 337 336 326 311 315 318 316 185 197 194 195 198 200 181 186 196 200 194 195 194
66 64 64 19 5 23 190 61 30 20 21 28 23 20 17 18 14 8 3 360 0 359 358 356 355 352 351 347 341 336 333 332 326 322 352 299 322 198 203 201 184 184 204 179 185 198 201 195 197
29 85 45 91 13 75 45 107 35 21 25 28 22 16 13 13 15 11 5 4 359 359 353 357 356 353 348 346 343 338 333 335 329 324 317 325 321 298 186 205 200 188 184 189 182 201 208 201 195
38 62 69 62 53 75 86 98 65 27 26 27 23 20 16 14 12 7 7 4 2 358 354 356 357 349 349 344 343 342 336 335 333 331 319 316 319 317 316 207 200 194 187 184 187 198 211 209 199
87 83 78 118 141 76 88 99 73 38 34 25 20 17 12 11 8 11 10 8 4 3 358 354 357 350 349 345 345 344 340 334 332 328 331 326 310 314 322 275 196 185 192 189 185 188 208 207 196
65 82 58 74 130 90 130 98 74 39 32 23 17 16 9 3 7 8 7 7 7 2 0 356 352 358 353 346 337 339 333 332 324 330 326 327 325 315 312 304 284 189 186 188 183 187 195 206 192
48 52 352 312 125 95 152 111 83 28 22 17 19 15 13 7 360 3 3 4 3 4 357 355 354 353 358 347 338 331 332 334 334 335 332 335 326 319 305 298 289 284 188 189 190 189 189 197 198
62 1 326 200 181 103 316 116 63 6 13 19 11 8 4 360 -0 0 1 -0 0 357 356 354 354 356 356 356 344 343 337 339 334 332 330 329 335 326 316 314 285 293 302 192 197 193 194 189 200
334 333 19 135 107 134 37 107 43 348 2 6 3 359 357 354 351 350 355 355 355 356 354 350 352 354 356 356 354 345 336 331 329 336 334 335 333 328 320 315 320 238 294 260 221 245 194 196 192
324 96 68 79 81 73 340 346 27 5 330 338 348 352 347 345 348 348 348 350 354 356 353 348 348 349 355 356 353 349 346 332 336 339 338 335 333 331 327 328 327 326 250 253 231 210 249 197 204
32 55 28 47 24 33 321 265 282 264 286 313 326 335 334 336 342 339 345 344 346 348 348 348 348 347 348 350 349 350 349 342 333 335 336 338 335 336 332 327 324 316 303 261 220 225 215 273 235
45 51 79 89 351 341 324 347 56 266 294 305 305 314 327 331 333 339 339 331 340 343 343 344 344 343 344 344 344 348 348 346 339 337 333 328 332 334 329 324 319 312 298 304 223 214 214 206 219
45 52 57 90 59 255 327 253 269 250 323 322 336 338 332 329 333 326 329 329 334 342 343 341 338 337 341 343 341 348 346 348 344 340 333 330 329 336 343 330 328 325 307 286 264 215 213 204 210
71 94 143 50 23 339 301 267 290 326 314 320 324 321 318 323 325 321 323 327 325 335 340 341 345 345 340 343 346 336 346 352 340 340 341 337 332 335 349 347 342 341 331 308 299 221 221 213 210
37 64 66 104 3 337 312 242 218 250 277 297 298 296 293 302 307 321 318 330 330 338 345 344 348 348 347 347 347 336 354 354 349 345 345 341 337 339 352 355 348 348 343 332 315 251 211 216 213
105 116 94 97 159 60 300 278 220 249 277 283 278 282 288 290 305 317 324 334 337 341 347 350 351 351 350 347 347 341 356 354 343 348 350 345 343 344 345 358 357 350 347 341 338 322 247 210 213